Regional Weather Roundup
Issued by NWS

Home | Current Version | Previous Version | Graphics & Text | Print | Product List | Glossary On
Versions: 1 2 3 4 5 6 7 8 9 10 11 12 13 14 15 16 17 18 19 20 21 22 23 24 25 26 27 28 29 30 31 32 33 34 35 36 37 38 39 40 41 42 43 44 45 46 47 48 49 50
000
ASUS43 KLOT 211403
RWRIL

ILLINOIS REGIONAL WEATHER ROUNDUP
NATIONAL WEATHER SERVICE CHICAGO/ROMEOVILLE IL
800 AM CST SAT JAN 21 2017

NOTE: "FAIR" INDICATES FEW OR NO CLOUDS BELOW 12,000 FEET WITH NO
SIGNIFICANT WEATHER AND/OR OBSTRUCTIONS TO VISIBILITY.

* THESE STATIONS ARE NOT UNDER NWS QUALITY CONTROL. THEY ALSO MAY NOT
  REPORT WEATHER SUCH AS PRECIPITATION OR FOG.

ILZ001-002-007-009-015-016-024-211500-
NORTHWEST ILLINOIS

CITY           SKY/WX    TMP DP  RH WIND       PRES   REMARKS
MOLINE         CLEAR     40  38  93 CALM      29.43R
STERLING*      LGT RAIN  42  42 100 SE7       29.46S VSB 1/4
SAVANNA*       FOG       44  43  99 SE6       29.45R VSB 1/2
$$

ILZ003-004-008-010-011-017-018-211500-
NORTH CENTRAL ILLINOIS

CITY           SKY/WX    TMP DP  RH WIND       PRES   REMARKS
ROCKFORD       FOG       46  45  96 S10       29.49S VSB 1/2
FREEPORT*      FOG       44  44 100 SE9       29.47S VSB 1/4
ROCHELLE*      SNOW      43  43 100 SE12      29.48S VSB 1/4
DE KALB*       LGT RAIN  44  43  99 SE7       29.50F VSB<1/4
$$

ILZ005-006-012>014-019>023-211500-
NORTHEAST ILLINOIS

CITY           SKY/WX    TMP DP  RH WIND       PRES   REMARKS
CHICAGO-OHARE  CLOUDY    48  47  96 S10       29.52S FOG
CHICAGO-MIDWAY MOCLDY    48  47  96 S7        29.53F FOG
AURORA         NOT AVBL
LANSING*       CLOUDY    47  47 100 S9        29.55F FOG
JOLIET*        FOG       45  45 100 CALM      29.53S VSB 1/2
WAUKEGAN       FOG       41  41 100 SE6       29.53R VSB<1/4
DUPAGE AIRPORT FOG       47  45  93 SE12      29.51S VSB 1/4
KANKAKEE*      CLEAR     45  44  97 CALM      29.54F FOG
WHEELING       CLOUDY    47  46  97 S9        29.53S FOG
MORRIS*        FOG       42  42  98 SE6       29.50F VSB<1/4
NORTHERLY ISL    N/A     48  46  93 SE6         N/A
$$

LMZ740>746-211500-
SOUTHERN LAKE MICHIGAN

STATION/POSITION SKY/WX   TEMP    WIND        PRES    VSBY  WAVE
                          AIR SEA DIR/SP/G                  HT/PER
                          (F)     (DEG/KT/KT) (MB)    (MI)  (FT/S)
HARRISON CRIB              47     170/ 16/ 17   N/A
BURNHAM HARBOR             47     160/  7/  9   N/A
CALUMET HARBOR             48     170/  7/ 10 1000.0F
BURNS HARBOR               50     170/ 11/ 17 1001.7F
$$

ILZ025>027-034>036-040-047-049-050-058-095>099-211500-
WEST-CENTRAL ILLINOIS

CITY           SKY/WX    TMP DP  RH WIND       PRES   REMARKS
QUINCY         CLEAR     49  41  74 SW16      29.46R
GALESBURG*     CLEAR     42  42 100 S7        29.45R FOG
MACOMB*        CLEAR     44  44 100 S12       29.47S
JACKSONVILLE*  CLEAR     49  45  86 S14       29.50R
PITTSFIELD*    PTCLDY    50  44  79 S10       29.49R
$$

ILZ028>032-037-038-041>044-048-051>054-059>061-211500-
CENTRAL ILLINOIS

CITY           SKY/WX    TMP DP  RH WIND       PRES   REMARKS
BLOOMINGTON    CLEAR     45  44  97 S13       29.52F
DECATUR        CLEAR     48  47  96 S14       29.54S
PEORIA         CLEAR     47  45  93 S12       29.48F
LACON*         CLEAR     46  45  94 S7        29.47S
LINCOLN*       CLEAR     47  46  95 S12       29.51S
SPRINGFIELD    CLEAR     50  46  86 S13       29.52S
TAYLORVILLE    CLEAR     48  46  91 S10       29.54R
$$

ILZ033-039-045-046-055>057-062-063-211500-
EAST-CENTRAL ILLINOIS

CITY           SKY/WX    TMP DP  RH WIND       PRES   REMARKS
CHAMPAIGN      CLEAR     48  45  89 S14       29.55F
MATTOON        PTCLDY    48  47  96 S9        29.57S
PARIS*         MOCLDY    48  48 100 SE10      29.60S FOG
$$

ILZ079-100>102-211500-
SOUTHWEST ILLINOIS

CITY           SKY/WX    TMP DP  RH WIND       PRES   REMARKS
ALTON          PTCLDY    50  45  81 S14       29.55R
BELLEVILLE     PTCLDY    50  50  99 E5        29.55R FOG
CAHOKIA*       CLEAR     49  44  83 SE7       29.55R
SPARTA*        CLOUDY    53  49  87 S12G17    29.59S
$$

ILZ064>066-069>071-074>076-080>082-084>086-088>090-092>094-211500-
SOUTH-CENTRAL ILLINOIS

CITY           SKY/WX    TMP DP  RH WIND       PRES   REMARKS
CARBONDALE     MOCLDY    52  51  97 SE3       29.61S
CAIRO*         MOCLDY    55  52  88 S6        29.63S
EFFINGHAM*     MOCLDY    50  50 100 SE8       29.61R
MARION         CLOUDY    54  54 100 S8        29.63R
MT. VERNON     CLOUDY    51  49  92 S6        29.61S
CENTRALIA*     MOCLDY    53  51  94 S14       29.58S
SALEM*         CLOUDY    55  50  83 S10       29.59S
METROPOLIS*    MOCLDY    50  49  99 CALM      29.65S FOG
$$

ILZ067-068-072-073-078-083-087-091-211500-
SOUTHEAST ILLINOIS

CITY           SKY/WX    TMP DP  RH WIND       PRES   REMARKS
LAWRENCEVILLE  MOCLDY    50  50 100 S10       29.64R
FLORA*         MOCLDY    52  50  93 S8        29.61S
FAIRFIELD*     CLOUDY    52  50  94 S3        29.61S
HARRISBURG*    CLOUDY    50  49  96 S5        29.63S
ROBINSON*      PTCLDY    50  49  97 S10       29.64R
CARMI*         CLOUDY    49  49 100 SE9       29.63S
$$

ABBREVIATIONS USED IN REMARKS
   TC - TEMPERATURE IN CELSIUS
  WCI - WIND CHILL INDEX
   HX - HEAT INDEX
  VSB - VISIBILITY
$$




USA.gov is the U.S. government's official web portal to all federal, state and local government web resources and services.